Weather History for Delaware, OH

Change the Weather History Date:

Sunday, October 14, 2012

  Actual Average Record
Temperature  
Mean Temperature 66 °F -  
Max Temperature 71 °F 65 °F 84 °F (1969)
Min Temperature 59 °F 41 °F 25 °F (1987)
Growing Degree Days 16 (Base 50)    
Moisture  
Dew Point 55 °F    
Average Humidity 71    
Maximum Humidity 88    
Minimum Humidity 56    
Precipitation  
Precipitation 0.08 in - - ()
Sea Level Pressure  
Sea Level Pressure 29.86 in    
Wind  
Wind Speed 12 mph (SSW)    
Max Wind Speed 31 mph    
Max Gust Speed 41 mph    
Visibility 10 miles    
Events Rain    
Averages and records for this station are not official NWS values.
T = Trace of Precipitation, MM = Missing Value Source: NWS Daily Summary

Daily Weather History Graph

Daily Weather History Graph

Search for Another Location

Airport:

Trip Planner

Search our weather history database for the weather conditions in past years. The results will help you decide how hot, cold, wet, or windy it might be!

Date:

Astronomy

Oct. 14, 2012 Rise Set
Actual Time 7:42 AM EDT 6:53 PM EDT
Civil Twilight 7:15 AM EDT 7:20 PM EDT
Nautical Twilight 6:43 AM EDT 7:52 PM EDT
Astronomical Twilight 6:12 AM EDT 8:23 PM EDT
Moon 6:40 AM EDT (10/14) 6:12 PM EDT (10/14)
Length of Visible Light 12h 05m
Length of Day
11h 10m
Waning Crescent, 1% of the Moon is Illuminated
Oct 14
Waning Crescent
Oct 15
New
Oct 21
First Quarter
Oct 29
Full
Nov 6
Last Quarter

Hourly Weather History & Observations

Time (EDT) Temp. Dew Point Humidity Pressure Visibility Wind Dir Wind Speed Gust Speed Precip Events Conditions
12:16 AM 64.4 °F 55.4 °F 73% 30.03 in 10.0 mi South 6.9 mph - N/A   Scattered Clouds
12:36 AM 62.6 °F 53.6 °F 72% 30.03 in 10.0 mi South 5.8 mph - N/A   Scattered Clouds
1:16 AM 60.8 °F 53.6 °F 77% 30.02 in 10.0 mi South 5.8 mph - N/A   Scattered Clouds
1:36 AM 60.8 °F 53.6 °F 77% 30.02 in 10.0 mi South 6.9 mph - N/A   Clear
1:55 AM 60.8 °F 53.6 °F 77% 30.02 in 10.0 mi South 6.9 mph - N/A   Clear
2:16 AM 60.8 °F 53.6 °F 77% 30.01 in 10.0 mi South 4.6 mph - N/A   Clear
2:36 AM 60.8 °F 53.6 °F 77% 30.01 in 10.0 mi South 5.8 mph - N/A   Clear
2:55 AM 60.8 °F 53.6 °F 77% 30.01 in 10.0 mi South 6.9 mph - N/A   Scattered Clouds
3:16 AM 60.8 °F 53.6 °F 77% 30.00 in 10.0 mi South 6.9 mph - N/A   Scattered Clouds
3:36 AM 60.8 °F 53.6 °F 77% 30.00 in 10.0 mi South 8.1 mph - N/A   Scattered Clouds
3:55 AM 60.8 °F 53.6 °F 77% 30.00 in 10.0 mi South 6.9 mph - N/A   Scattered Clouds
4:16 AM 60.8 °F 53.6 °F 77% 30.00 in 10.0 mi South 6.9 mph - N/A   Scattered Clouds
4:36 AM 60.8 °F 55.4 °F 82% 29.99 in 10.0 mi South 5.8 mph - N/A   Mostly Cloudy
4:55 AM 62.6 °F 55.4 °F 77% 29.99 in 10.0 mi South 6.9 mph - N/A   Mostly Cloudy
5:16 AM 62.6 °F 55.4 °F 77% 29.99 in 10.0 mi South 9.2 mph - N/A   Overcast
5:36 AM 62.6 °F 55.4 °F 77% 30.00 in 10.0 mi South 8.1 mph - N/A   Overcast
5:55 AM 62.6 °F 53.6 °F 72% 29.99 in 10.0 mi South 8.1 mph - N/A   Mostly Cloudy
6:16 AM 60.8 °F 53.6 °F 77% 29.99 in 10.0 mi South 8.1 mph - N/A   Scattered Clouds
6:36 AM 60.8 °F 53.6 °F 77% 29.99 in 10.0 mi South 9.2 mph - N/A   Scattered Clouds
6:56 AM 60.8 °F 53.6 °F 77% 29.99 in 10.0 mi South 8.1 mph - N/A   Mostly Cloudy
7:16 AM 62.6 °F 53.6 °F 72% 29.99 in 10.0 mi South 6.9 mph - N/A   Overcast
7:35 AM 62.6 °F 53.6 °F 72% 29.99 in 10.0 mi South 8.1 mph - N/A   Overcast
7:56 AM 62.6 °F 53.6 °F 72% 29.98 in 10.0 mi South 10.4 mph 16.1 mph N/A   Overcast
8:16 AM 62.6 °F 53.6 °F 72% 29.97 in 10.0 mi South 10.4 mph 17.3 mph N/A   Overcast
8:35 AM 62.6 °F 53.6 °F 72% 29.97 in 10.0 mi South 11.5 mph 18.4 mph N/A   Overcast
8:56 AM 62.6 °F 53.6 °F 72% 29.97 in 10.0 mi South 12.7 mph 19.6 mph N/A   Overcast
9:16 AM 64.4 °F 53.6 °F 68% 29.96 in 10.0 mi South 12.7 mph 25.3 mph N/A   Overcast
9:35 AM 64.4 °F 53.6 °F 68% 29.96 in 10.0 mi South 16.1 mph 25.3 mph N/A   Scattered Clouds
9:56 AM 64.4 °F 53.6 °F 68% 29.96 in 10.0 mi SSW 15.0 mph 25.3 mph N/A   Scattered Clouds
10:16 AM 64.4 °F 53.6 °F 68% 29.95 in 10.0 mi South 13.8 mph 20.7 mph N/A   Overcast
10:35 AM 66.2 °F 53.6 °F 64% 29.94 in 10.0 mi South 13.8 mph 21.9 mph N/A   Mostly Cloudy
10:56 AM 68.0 °F 53.6 °F 60% 29.92 in 10.0 mi South 13.8 mph 27.6 mph N/A   Scattered Clouds
11:16 AM 69.8 °F 53.6 °F 56% 29.91 in 10.0 mi SSW 23.0 mph 34.5 mph N/A   Scattered Clouds
11:35 AM 69.8 °F 53.6 °F 56% 29.90 in 10.0 mi SSW 15.0 mph 27.6 mph N/A   Scattered Clouds
11:56 AM 71.6 °F 55.4 °F 57% 29.88 in 10.0 mi SSW 25.3 mph 34.5 mph N/A   Scattered Clouds
12:16 PM 69.8 °F 53.6 °F 56% 29.88 in 10.0 mi SSW 24.2 mph 34.5 mph N/A   Mostly Cloudy
12:36 PM 71.6 °F 55.4 °F 57% 29.87 in 10.0 mi South 24.2 mph 33.4 mph N/A   Mostly Cloudy
12:56 PM 71.6 °F 55.4 °F 57% 29.85 in 10.0 mi SSW 27.6 mph 38.0 mph N/A   Mostly Cloudy
1:16 PM 71.6 °F 55.4 °F 57% 29.84 in 10.0 mi South 27.6 mph 40.3 mph N/A   Mostly Cloudy
1:36 PM 71.6 °F 55.4 °F 57% 29.82 in 10.0 mi SSW 21.9 mph 39.1 mph N/A   Scattered Clouds
1:56 PM 71.6 °F 55.4 °F 57% 29.82 in 10.0 mi SSW 21.9 mph 34.5 mph N/A   Scattered Clouds
2:15 PM 71.6 °F 55.4 °F 57% 29.81 in 10.0 mi SSW 21.9 mph 39.1 mph N/A   Overcast
2:36 PM 71.6 °F 55.4 °F 57% 29.80 in 7.0 mi SSW 20.7 mph 34.5 mph N/A   Overcast
2:56 PM 71.6 °F 55.4 °F 57% 29.80 in 10.0 mi SSW 31.1 mph 36.8 mph N/A   Overcast
3:15 PM 71.6 °F 55.4 °F 57% 29.79 in 10.0 mi SSW 28.8 mph 41.4 mph N/A Rain Light Rain
3:36 PM 68.0 °F 57.2 °F 68% 29.80 in 5.0 mi SSW 26.5 mph 38.0 mph N/A Rain Rain
4:15 PM 66.2 °F 57.2 °F 73% 29.77 in 10.0 mi SSW 17.3 mph 25.3 mph N/A Rain Rain
4:36 PM 66.2 °F 59.0 °F 78% 29.75 in 10.0 mi South 19.6 mph 24.2 mph N/A   Overcast
4:56 PM 68.0 °F 57.2 °F 68% 29.74 in 10.0 mi South 18.4 mph 29.9 mph N/A   Overcast
5:15 PM 68.0 °F 57.2 °F 68% 29.73 in 10.0 mi South 21.9 mph 26.5 mph N/A   Overcast
5:36 PM 69.8 °F 55.4 °F 60% 29.73 in 10.0 mi SSW 18.4 mph 32.2 mph N/A   Overcast
5:56 PM 68.0 °F 57.2 °F 68% 29.73 in 10.0 mi SSW 18.4 mph 27.6 mph N/A   Overcast
6:15 PM 68.0 °F 55.4 °F 64% 29.71 in 10.0 mi South 17.3 mph 27.6 mph N/A   Overcast
6:36 PM 68.0 °F 55.4 °F 64% 29.70 in 10.0 mi South 17.3 mph 23.0 mph N/A   Overcast
6:55 PM 68.0 °F 55.4 °F 64% 29.69 in 10.0 mi South 16.1 mph 26.5 mph N/A   Overcast
7:16 PM 68.0 °F 55.4 °F 64% 29.69 in 10.0 mi SSW 23.0 mph 32.2 mph N/A Rain Light Rain
7:36 PM 64.4 °F 59.0 °F 83% 29.69 in 10.0 mi South 16.1 mph 27.6 mph N/A Rain Light Rain
7:55 PM 62.6 °F 55.4 °F 77% 29.69 in 10.0 mi South 19.6 mph 31.1 mph N/A   Overcast
8:16 PM 62.6 °F 55.4 °F 77% 29.68 in 10.0 mi SSW 16.1 mph 23.0 mph N/A   Mostly Cloudy
8:36 PM 62.6 °F 55.4 °F 77% 29.69 in 10.0 mi SSW 16.1 mph 23.0 mph N/A   Scattered Clouds
8:55 PM 62.6 °F 55.4 °F 77% 29.68 in 10.0 mi SSW 16.1 mph 26.5 mph N/A   Clear
9:16 PM 62.6 °F 57.2 °F 82% 29.68 in 10.0 mi SSW 17.3 mph 24.2 mph N/A   Scattered Clouds
9:36 PM 62.6 °F 57.2 °F 82% 29.68 in 10.0 mi SSW 17.3 mph 25.3 mph N/A   Clear
9:55 PM 64.4 °F 57.2 °F 77% 29.68 in 10.0 mi SSW 20.7 mph 28.8 mph N/A   Clear
10:16 PM 64.4 °F 57.2 °F 77% 29.68 in 10.0 mi SSW 18.4 mph 32.2 mph N/A   Scattered Clouds
10:36 PM 62.6 °F 57.2 °F 82% 29.68 in 10.0 mi SSW 18.4 mph 28.8 mph N/A   Scattered Clouds
10:56 PM 62.6 °F 57.2 °F 82% 29.69 in 10.0 mi SSW 15.0 mph 29.9 mph N/A   Mostly Cloudy
11:16 PM 62.6 °F 59.0 °F 88% 29.69 in 7.0 mi SSW 13.8 mph 23.0 mph 0.01 in Rain Heavy Rain
11:36 PM 60.8 °F 55.4 °F 82% 29.71 in 10.0 mi WSW 16.1 mph 34.5 mph 0.08 in Rain Light Rain
11:56 PM 59.0 °F 55.4 °F 88% 29.71 in 10.0 mi WSW 12.7 mph 18.4 mph 0.08 in Rain Rain